Terminal Aerodrome Forecast
Issued by NWS Mt. Holly, NJ

Home | Current Version | Previous Version | Text Only | Print | Product List | Glossary On
Versions: 1 2 3 4 5 6 7 8 9 10 11 12 13 14 15 16 17 18 19 20 21 22 23 24 25 26 27 28 29 30 31 32 33 34 35 36 37 38 39 40 41 42 43 44 45 46 47 48 49 50
000
FTAK31 PANC 010214 AAA
TAFABE
TAF AMD
PABE 010214Z 0102/0124 25008KT 4SM BR OVC012
      TEMPO 0102/0104 1SM -SHRA BR BKN005
     FM010400 22008KT 4SM BR BKN007 OVC012
     FM011400 20008KT 1/2SM FG VV004
     FM012000 20008KT P6SM VCFG SCT004 BKN010=

USA.gov is the U.S. government's official web portal to all federal, state and local government web resources and services.